Year,Month,Day,Hour,Minute,Value (Times are PST for temperature in C)
2021,06,28,00,00,31.40
2021,06,28,00,01,31.40
2021,06,28,00,02,31.30
2021,06,28,00,03,31.30
2021,06,28,00,04,31.30
2021,06,28,00,05,31.30
2021,06,28,00,06,31.30
2021,06,28,00,07,31.20
2021,06,28,00,08,31.20
2021,06,28,00,09,31.20
2021,06,28,00,10,31.20
2021,06,28,00,11,31.20
2021,06,28,00,12,31.20
2021,06,28,00,13,31.10
2021,06,28,00,14,31.10
2021,06,28,00,15,31.10
2021,06,28,00,16,31.10
2021,06,28,00,17,31.10
2021,06,28,00,18,31.10
2021,06,28,00,19,31.10
2021,06,28,00,20,31.10
2021,06,28,00,21,31.20
2021,06,28,00,22,31.30
2021,06,28,00,23,31.30
2021,06,28,00,24,31.30
2021,06,28,00,25,31.40
2021,06,28,00,26,31.30
2021,06,28,00,27,31.30
2021,06,28,00,28,31.30
2021,06,28,00,29,31.30
2021,06,28,00,30,31.30
2021,06,28,00,31,31.20
2021,06,28,00,32,31.20
2021,06,28,00,33,31.20
2021,06,28,00,34,31.20
2021,06,28,00,35,31.20
2021,06,28,00,36,31.20
2021,06,28,00,37,31.20
2021,06,28,00,38,31.20
2021,06,28,00,39,31.20
2021,06,28,00,40,31.10
2021,06,28,00,41,31.10
2021,06,28,00,42,31.10
2021,06,28,00,43,31.00
2021,06,28,00,44,31.00
2021,06,28,00,45,31.00
2021,06,28,00,46,31.00
2021,06,28,00,47,31.00
2021,06,28,00,48,30.90
2021,06,28,00,49,30.90
2021,06,28,00,50,30.90
2021,06,28,00,51,30.90
2021,06,28,00,52,30.90
2021,06,28,00,53,30.90
2021,06,28,00,54,31.00
2021,06,28,00,55,31.00
2021,06,28,00,56,31.00
2021,06,28,00,57,31.00
2021,06,28,00,58,31.00
2021,06,28,00,59,31.00
2021,06,28,01,00,30.90
2021,06,28,01,01,30.90
2021,06,28,01,02,30.90
2021,06,28,01,03,30.90
2021,06,28,01,04,30.90
2021,06,28,01,05,30.90
2021,06,28,01,06,30.90
2021,06,28,01,07,30.90
2021,06,28,01,08,30.90
2021,06,28,01,09,30.90
2021,06,28,01,10,30.90
2021,06,28,01,11,30.90
2021,06,28,01,12,31.00
2021,06,28,01,13,31.00
2021,06,28,01,14,31.00
2021,06,28,01,15,30.90
2021,06,28,01,16,30.90
2021,06,28,01,17,30.90
2021,06,28,01,18,30.90
2021,06,28,01,19,30.80
2021,06,28,01,20,30.80
2021,06,28,01,21,30.80
2021,06,28,01,22,30.80
2021,06,28,01,23,30.70
2021,06,28,01,24,30.70
2021,06,28,01,25,30.70
2021,06,28,01,26,30.70
2021,06,28,01,27,30.70
2021,06,28,01,28,30.80
2021,06,28,01,29,30.80
2021,06,28,01,30,30.80
2021,06,28,01,31,30.70
2021,06,28,01,32,30.60
2021,06,28,01,33,30.60
2021,06,28,01,34,30.50
2021,06,28,01,35,30.40
2021,06,28,01,36,30.30
2021,06,28,01,37,30.20
2021,06,28,01,38,30.10
2021,06,28,01,39,30.00
2021,06,28,01,40,29.90
2021,06,28,01,41,29.80
2021,06,28,01,42,29.70
2021,06,28,01,43,29.60
2021,06,28,01,44,29.50
2021,06,28,01,45,29.40
2021,06,28,01,46,29.30
2021,06,28,01,47,29.20
2021,06,28,01,48,29.10
2021,06,28,01,49,29.00
2021,06,28,01,50,28.90
2021,06,28,01,51,28.80
2021,06,28,01,52,28.70
2021,06,28,01,53,28.60
2021,06,28,01,54,28.50
2021,06,28,01,55,28.40
2021,06,28,01,56,28.30
2021,06,28,01,57,28.20
2021,06,28,01,58,28.10
2021,06,28,01,59,28.00
2021,06,28,02,00,28.00
2021,06,28,02,01,27.90
2021,06,28,02,02,27.80
2021,06,28,02,03,27.80
2021,06,28,02,04,27.70
2021,06,28,02,05,27.70
2021,06,28,02,06,27.70
2021,06,28,02,07,27.70
2021,06,28,02,08,27.80
2021,06,28,02,09,27.80
2021,06,28,02,10,27.80
2021,06,28,02,11,27.80
2021,06,28,02,12,27.80
2021,06,28,02,13,27.90
2021,06,28,02,14,27.90
2021,06,28,02,15,27.90
2021,06,28,02,16,28.00
2021,06,28,02,17,28.00
2021,06,28,02,18,28.00
2021,06,28,02,19,28.10
2021,06,28,02,20,28.10
2021,06,28,02,21,28.20
2021,06,28,02,22,28.20
2021,06,28,02,23,28.20
2021,06,28,02,24,28.30
2021,06,28,02,25,28.30
2021,06,28,02,26,28.40
2021,06,28,02,27,28.40
2021,06,28,02,28,28.50
2021,06,28,02,29,28.60
2021,06,28,02,30,28.60
2021,06,28,02,31,28.70
2021,06,28,02,32,28.70
2021,06,28,02,33,28.80
2021,06,28,02,34,28.90
2021,06,28,02,35,28.90
2021,06,28,02,36,29.00
2021,06,28,02,37,29.10
2021,06,28,02,38,29.10
2021,06,28,02,39,29.20
2021,06,28,02,40,29.20
2021,06,28,02,41,29.30
2021,06,28,02,42,29.30
2021,06,28,02,43,29.30
2021,06,28,02,44,29.40
2021,06,28,02,45,29.40
2021,06,28,02,46,29.30
2021,06,28,02,47,29.30
2021,06,28,02,48,29.30
2021,06,28,02,49,29.30
2021,06,28,02,50,29.20
2021,06,28,02,51,29.20
2021,06,28,02,52,29.20
2021,06,28,02,53,29.10
2021,06,28,02,54,29.10
2021,06,28,02,55,29.00
2021,06,28,02,56,29.00
2021,06,28,02,57,28.90
2021,06,28,02,58,28.90
2021,06,28,02,59,28.90
2021,06,28,03,00,28.90
2021,06,28,03,01,28.80
2021,06,28,03,02,28.80
2021,06,28,03,03,28.80
2021,06,28,03,04,28.80
2021,06,28,03,05,28.70
2021,06,28,03,06,28.70
2021,06,28,03,07,28.70
2021,06,28,03,08,28.70
2021,06,28,03,09,28.70
2021,06,28,03,10,28.70
2021,06,28,03,11,28.70
2021,06,28,03,12,28.70
2021,06,28,03,13,28.70
2021,06,28,03,14,28.60
2021,06,28,03,15,28.60
2021,06,28,03,16,28.60
2021,06,28,03,17,28.60
2021,06,28,03,18,28.60
2021,06,28,03,19,28.50
2021,06,28,03,20,28.50
2021,06,28,03,21,28.40
2021,06,28,03,22,28.40
2021,06,28,03,23,28.40
2021,06,28,03,24,28.30
2021,06,28,03,25,28.30
2021,06,28,03,26,28.30
2021,06,28,03,27,28.20
2021,06,28,03,28,28.20
2021,06,28,03,29,28.20
2021,06,28,03,30,28.10
2021,06,28,03,31,28.10
2021,06,28,03,32,28.10
2021,06,28,03,33,28.10
2021,06,28,03,34,28.00
2021,06,28,03,35,28.00
2021,06,28,03,36,28.00
2021,06,28,03,37,28.00
2021,06,28,03,38,28.00
2021,06,28,03,39,28.00
2021,06,28,03,40,28.00
2021,06,28,03,41,28.00
2021,06,28,03,42,28.00
2021,06,28,03,43,28.00
2021,06,28,03,44,27.90
2021,06,28,03,45,28.00
2021,06,28,03,46,28.00
2021,06,28,03,47,28.00
2021,06,28,03,48,28.10
2021,06,28,03,49,28.10
2021,06,28,03,50,28.10
2021,06,28,03,51,28.10
2021,06,28,03,52,28.20
2021,06,28,03,53,28.20
2021,06,28,03,54,28.20
2021,06,28,03,55,28.20
2021,06,28,03,56,28.20
2021,06,28,03,57,28.30
2021,06,28,03,58,28.30
2021,06,28,03,59,28.30
2021,06,28,04,00,28.30
2021,06,28,04,01,28.30
2021,06,28,04,02,28.40
2021,06,28,04,03,28.40
2021,06,28,04,04,28.30
2021,06,28,04,05,28.30
2021,06,28,04,06,28.30
2021,06,28,04,07,28.30
2021,06,28,04,08,28.20
2021,06,28,04,09,28.20
2021,06,28,04,10,28.20
2021,06,28,04,11,28.20
2021,06,28,04,12,28.10
2021,06,28,04,13,28.10
2021,06,28,04,14,28.10
2021,06,28,04,15,28.10
2021,06,28,04,16,28.10
2021,06,28,04,17,28.10
2021,06,28,04,18,28.00
2021,06,28,04,19,28.00
2021,06,28,04,20,27.90
2021,06,28,04,21,27.80
2021,06,28,04,22,27.80
2021,06,28,04,23,27.70
2021,06,28,04,24,27.70
2021,06,28,04,25,27.70
2021,06,28,04,26,27.70
2021,06,28,04,27,27.70
2021,06,28,04,28,27.80
2021,06,28,04,29,27.80
2021,06,28,04,30,27.80
2021,06,28,04,31,27.80
2021,06,28,04,32,27.80
2021,06,28,04,33,27.80
2021,06,28,04,34,27.80
2021,06,28,04,35,27.80
2021,06,28,04,36,27.80
2021,06,28,04,37,27.80
2021,06,28,04,38,27.80
2021,06,28,04,39,27.80
2021,06,28,04,40,27.80
2021,06,28,04,41,27.90
2021,06,28,04,42,27.90
2021,06,28,04,43,27.90
2021,06,28,04,44,27.90
2021,06,28,04,45,27.90
2021,06,28,04,46,27.90
2021,06,28,04,47,27.90
2021,06,28,04,48,28.00
2021,06,28,04,49,28.00
2021,06,28,04,50,28.00
2021,06,28,04,51,28.00
2021,06,28,04,52,28.10
2021,06,28,04,53,28.10
2021,06,28,04,54,28.10
2021,06,28,04,55,28.10
2021,06,28,04,56,28.10
2021,06,28,04,57,28.10
2021,06,28,04,58,28.10
2021,06,28,04,59,28.10
2021,06,28,05,00,28.10
2021,06,28,05,01,28.10
2021,06,28,05,02,28.10
2021,06,28,05,03,28.10
2021,06,28,05,04,28.10
2021,06,28,05,05,28.10
2021,06,28,05,06,28.10
2021,06,28,05,07,28.10
2021,06,28,05,08,28.10
2021,06,28,05,09,28.10
2021,06,28,05,10,28.10
2021,06,28,05,11,28.10
2021,06,28,05,12,28.00
2021,06,28,05,13,28.00
2021,06,28,05,14,27.90
2021,06,28,05,15,27.90
2021,06,28,05,16,27.80
2021,06,28,05,17,27.70
2021,06,28,05,18,27.60
2021,06,28,05,19,27.50
2021,06,28,05,20,27.50
2021,06,28,05,21,27.40
2021,06,28,05,22,27.30
2021,06,28,05,23,27.30
2021,06,28,05,24,27.20
2021,06,28,05,25,27.10
2021,06,28,05,26,27.10
2021,06,28,05,27,27.00
2021,06,28,05,28,26.90
2021,06,28,05,29,26.90
2021,06,28,05,30,26.90
2021,06,28,05,31,26.90
2021,06,28,05,32,26.90
2021,06,28,05,33,26.80
2021,06,28,05,34,26.90
2021,06,28,05,35,26.90
2021,06,28,05,36,26.90
2021,06,28,05,37,26.90
2021,06,28,05,38,26.90
2021,06,28,05,39,26.90
2021,06,28,05,40,26.90
2021,06,28,05,41,27.00
2021,06,28,05,42,27.10
2021,06,28,05,43,27.10
2021,06,28,05,44,27.10
2021,06,28,05,45,27.10
2021,06,28,05,46,27.10
2021,06,28,05,47,27.10
2021,06,28,05,48,27.10
2021,06,28,05,49,27.20
2021,06,28,05,50,27.20
2021,06,28,05,51,27.20
2021,06,28,05,52,27.30
2021,06,28,05,53,27.30
2021,06,28,05,54,27.30
2021,06,28,05,55,27.30
2021,06,28,05,56,27.40
2021,06,28,05,57,27.40
2021,06,28,05,58,27.40
2021,06,28,05,59,27.40
2021,06,28,06,00,27.50
2021,06,28,06,01,27.50
2021,06,28,06,02,27.50
2021,06,28,06,03,27.50
2021,06,28,06,04,27.50
2021,06,28,06,05,27.50
2021,06,28,06,06,27.50
2021,06,28,06,07,27.40
2021,06,28,06,08,27.40
2021,06,28,06,09,27.40
2021,06,28,06,10,27.40
2021,06,28,06,11,27.40
2021,06,28,06,12,27.40
2021,06,28,06,13,27.40
2021,06,28,06,14,27.40
2021,06,28,06,15,27.40
2021,06,28,06,16,27.50
2021,06,28,06,17,27.50
2021,06,28,06,18,27.60
2021,06,28,06,19,27.60
2021,06,28,06,20,27.60
2021,06,28,06,21,27.70
2021,06,28,06,22,27.70
2021,06,28,06,23,27.80
2021,06,28,06,24,27.80
2021,06,28,06,25,27.80
2021,06,28,06,26,27.80
2021,06,28,06,27,27.90
2021,06,28,06,28,27.90
2021,06,28,06,29,28.00
2021,06,28,06,30,28.10
2021,06,28,06,31,28.10
2021,06,28,06,32,28.10
2021,06,28,06,33,28.20
2021,06,28,06,34,28.20
2021,06,28,06,35,28.30
2021,06,28,06,36,28.30
2021,06,28,06,37,28.30
2021,06,28,06,38,28.30
2021,06,28,06,39,28.40
2021,06,28,06,40,28.40
2021,06,28,06,41,28.30
2021,06,28,06,42,28.30
2021,06,28,06,43,28.30
2021,06,28,06,44,28.30
2021,06,28,06,45,28.30
2021,06,28,06,46,28.30
2021,06,28,06,47,28.30
2021,06,28,06,48,28.30
2021,06,28,06,49,28.30
2021,06,28,06,50,28.30
2021,06,28,06,51,28.20
2021,06,28,06,52,28.30
2021,06,28,06,53,28.30
2021,06,28,06,54,28.30
2021,06,28,06,55,28.30
2021,06,28,06,56,28.30
2021,06,28,06,57,28.40
2021,06,28,06,58,28.50
2021,06,28,06,59,28.50
2021,06,28,07,00,28.60
2021,06,28,07,01,28.60
2021,06,28,07,02,28.60
2021,06,28,07,03,28.70
2021,06,28,07,04,28.70
2021,06,28,07,05,28.70
2021,06,28,07,06,28.80
2021,06,28,07,07,28.80
2021,06,28,07,08,28.80
2021,06,28,07,09,28.90
2021,06,28,07,10,28.90
2021,06,28,07,11,28.90
2021,06,28,07,12,28.90
2021,06,28,07,13,29.00
2021,06,28,07,14,29.00
2021,06,28,07,15,29.00
2021,06,28,07,16,29.10
2021,06,28,07,17,29.00
2021,06,28,07,18,29.00
2021,06,28,07,19,29.00
2021,06,28,07,20,29.10
2021,06,28,07,21,29.10
2021,06,28,07,22,29.10
2021,06,28,07,23,29.10
2021,06,28,07,24,29.10
2021,06,28,07,25,29.10
2021,06,28,07,26,29.10
2021,06,28,07,27,29.10
2021,06,28,07,28,29.10
2021,06,28,07,29,29.10
2021,06,28,07,30,29.00
2021,06,28,07,31,28.90
2021,06,28,07,32,28.80
2021,06,28,07,33,28.80
2021,06,28,07,34,28.70
2021,06,28,07,35,28.60
2021,06,28,07,36,28.50
2021,06,28,07,37,28.50
2021,06,28,07,38,28.40
2021,06,28,07,39,28.40
2021,06,28,07,40,28.40
2021,06,28,07,41,28.40
2021,06,28,07,42,28.30
2021,06,28,07,43,28.30
2021,06,28,07,44,28.30
2021,06,28,07,45,28.30
2021,06,28,07,46,28.30
2021,06,28,07,47,28.30
2021,06,28,07,48,28.20
2021,06,28,07,49,28.20
2021,06,28,07,50,28.20
2021,06,28,07,51,28.30
2021,06,28,07,52,28.30
2021,06,28,07,53,28.30
2021,06,28,07,54,28.40
2021,06,28,07,55,28.40
2021,06,28,07,56,28.40
2021,06,28,07,57,28.50
2021,06,28,07,58,28.60
2021,06,28,07,59,28.60
2021,06,28,08,00,28.70
2021,06,28,08,01,28.80
2021,06,28,08,02,28.80
2021,06,28,08,03,28.90
2021,06,28,08,04,29.00
2021,06,28,08,05,29.00
2021,06,28,08,06,29.10
2021,06,28,08,07,29.10
2021,06,28,08,08,29.20
2021,06,28,08,09,29.20
2021,06,28,08,10,29.20
2021,06,28,08,11,29.20
2021,06,28,08,12,29.30
2021,06,28,08,13,29.30
2021,06,28,08,14,29.30
2021,06,28,08,15,29.30
2021,06,28,08,16,29.40
2021,06,28,08,17,29.40
2021,06,28,08,18,29.50
2021,06,28,08,19,29.60
2021,06,28,08,20,29.70
2021,06,28,08,21,29.70
2021,06,28,08,22,29.70
2021,06,28,08,23,29.70
2021,06,28,08,24,29.70
2021,06,28,08,25,29.80
2021,06,28,08,26,29.80
2021,06,28,08,27,29.90
2021,06,28,08,28,29.90
2021,06,28,08,29,29.90
2021,06,28,08,30,29.80
2021,06,28,08,31,29.80
2021,06,28,08,32,29.80
2021,06,28,08,33,29.80
2021,06,28,08,34,29.80
2021,06,28,08,35,29.80
2021,06,28,08,36,29.80
2021,06,28,08,37,29.80
2021,06,28,08,38,29.90
2021,06,28,08,39,30.00
2021,06,28,08,40,30.10
2021,06,28,08,41,30.10
2021,06,28,08,42,30.20
2021,06,28,08,43,30.20
2021,06,28,08,44,30.30
2021,06,28,08,45,30.30
2021,06,28,08,46,30.40
2021,06,28,08,47,30.40
2021,06,28,08,48,30.30
2021,06,28,08,49,30.20
2021,06,28,08,50,30.10
2021,06,28,08,51,30.10
2021,06,28,08,52,30.10
2021,06,28,08,53,30.10
2021,06,28,08,54,30.10
2021,06,28,08,55,30.10
2021,06,28,08,56,30.10
2021,06,28,08,57,30.20
2021,06,28,08,58,30.20
2021,06,28,08,59,30.20
2021,06,28,09,00,30.30
2021,06,28,09,01,30.30
2021,06,28,09,02,30.40
2021,06,28,09,03,30.40
2021,06,28,09,04,30.40
2021,06,28,09,05,30.40
2021,06,28,09,06,30.40
2021,06,28,09,07,30.40
2021,06,28,09,08,30.40
2021,06,28,09,09,30.40
2021,06,28,09,10,30.30
2021,06,28,09,11,30.30
2021,06,28,09,12,30.30
2021,06,28,09,13,30.30
2021,06,28,09,14,30.30
2021,06,28,09,15,30.30
2021,06,28,09,16,30.30
2021,06,28,09,17,30.30
2021,06,28,09,18,30.40
2021,06,28,09,19,30.40
2021,06,28,09,20,30.50
2021,06,28,09,21,30.60
2021,06,28,09,22,30.70
2021,06,28,09,23,30.90
2021,06,28,09,24,31.00
2021,06,28,09,25,31.20
2021,06,28,09,26,31.20
2021,06,28,09,27,31.30
2021,06,28,09,28,31.30
2021,06,28,09,29,31.30
2021,06,28,09,30,31.30
2021,06,28,09,31,31.40
2021,06,28,09,32,31.40
2021,06,28,09,33,31.50
2021,06,28,09,34,31.50
2021,06,28,09,35,31.60
2021,06,28,09,36,31.80
2021,06,28,09,37,31.90
2021,06,28,09,38,32.00
2021,06,28,09,39,32.00
2021,06,28,09,40,32.10
2021,06,28,09,41,32.20
2021,06,28,09,42,32.20
2021,06,28,09,43,32.20
2021,06,28,09,44,32.20
2021,06,28,09,45,32.20
2021,06,28,09,46,32.30
2021,06,28,09,47,32.30
2021,06,28,09,48,32.30
2021,06,28,09,49,32.30
2021,06,28,09,50,32.30
2021,06,28,09,51,32.30
2021,06,28,09,52,32.30
2021,06,28,09,53,32.40
2021,06,28,09,54,32.40
2021,06,28,09,55,32.50
2021,06,28,09,56,32.50
2021,06,28,09,57,32.60
2021,06,28,09,58,32.60
2021,06,28,09,59,32.60
2021,06,28,10,00,32.70
2021,06,28,10,01,32.70
2021,06,28,10,02,32.70
2021,06,28,10,03,32.70
2021,06,28,10,04,32.80
2021,06,28,10,05,32.90
2021,06,28,10,06,33.00
2021,06,28,10,07,33.00
2021,06,28,10,08,33.00
2021,06,28,10,09,33.00
2021,06,28,10,10,32.90
2021,06,28,10,11,32.90
2021,06,28,10,12,32.90
2021,06,28,10,13,32.90
2021,06,28,10,14,33.00
2021,06,28,10,15,33.00
2021,06,28,10,16,32.90
2021,06,28,10,17,32.70
2021,06,28,10,18,32.40
2021,06,28,10,19,32.20
2021,06,28,10,20,32.00
2021,06,28,10,21,31.90
2021,06,28,10,22,31.90
2021,06,28,10,23,31.90
2021,06,28,10,24,31.90
2021,06,28,10,25,31.80
2021,06,28,10,26,31.80
2021,06,28,10,27,31.70
2021,06,28,10,28,31.80
2021,06,28,10,29,31.80
2021,06,28,10,30,31.80
2021,06,28,10,31,31.80
2021,06,28,10,32,31.80
2021,06,28,10,33,31.90
2021,06,28,10,34,31.90
2021,06,28,10,35,31.90
2021,06,28,10,36,31.90
2021,06,28,10,37,31.90
2021,06,28,10,38,31.90
2021,06,28,10,39,31.80
2021,06,28,10,40,31.80
2021,06,28,10,41,31.80
2021,06,28,10,42,31.80
2021,06,28,10,43,31.80
2021,06,28,10,44,31.90
2021,06,28,10,45,32.00
2021,06,28,10,46,32.20
2021,06,28,10,47,32.30
2021,06,28,10,48,32.50
2021,06,28,10,49,32.50
2021,06,28,10,50,32.50
2021,06,28,10,51,32.70
2021,06,28,10,52,32.70
2021,06,28,10,53,32.70
2021,06,28,10,54,32.60
2021,06,28,10,55,32.50
2021,06,28,10,56,32.40
2021,06,28,10,57,32.40
2021,06,28,10,58,32.40
2021,06,28,10,59,32.30
2021,06,28,11,00,32.30
2021,06,28,11,01,32.30
2021,06,28,11,02,32.40
2021,06,28,11,03,32.40
2021,06,28,11,04,32.40
2021,06,28,11,05,32.30
2021,06,28,11,06,32.30
2021,06,28,11,07,32.30
2021,06,28,11,08,32.30
2021,06,28,11,09,32.30
2021,06,28,11,10,32.30
2021,06,28,11,11,32.30
2021,06,28,11,12,32.40
2021,06,28,11,13,32.40
2021,06,28,11,14,32.50
2021,06,28,11,15,32.60
2021,06,28,11,16,32.60
2021,06,28,11,17,32.60
2021,06,28,11,18,32.60
2021,06,28,11,19,32.70
2021,06,28,11,20,32.80
2021,06,28,11,21,32.90
2021,06,28,11,22,33.00
2021,06,28,11,23,33.00
2021,06,28,11,24,33.10
2021,06,28,11,25,33.10
2021,06,28,11,26,33.20
2021,06,28,11,27,33.30
2021,06,28,11,28,33.40
2021,06,28,11,29,33.50
2021,06,28,11,30,33.60
2021,06,28,11,31,33.60
2021,06,28,11,32,33.60
2021,06,28,11,33,33.60
2021,06,28,11,34,33.60
2021,06,28,11,35,33.60
2021,06,28,11,36,33.60
2021,06,28,11,37,33.70
2021,06,28,11,38,33.70
2021,06,28,11,39,33.70
2021,06,28,11,40,33.80
2021,06,28,11,41,33.80
2021,06,28,11,42,33.80
2021,06,28,11,43,33.90
2021,06,28,11,44,33.90
2021,06,28,11,45,33.90
2021,06,28,11,46,34.00
2021,06,28,11,47,33.90
2021,06,28,11,48,33.90
2021,06,28,11,49,33.80
2021,06,28,11,50,33.80
2021,06,28,11,51,33.80
2021,06,28,11,52,33.90
2021,06,28,11,53,33.90
2021,06,28,11,54,33.90
2021,06,28,11,55,33.90
2021,06,28,11,56,33.90
2021,06,28,11,57,33.90
2021,06,28,11,58,33.90
2021,06,28,11,59,34.00
2021,06,28,12,00,34.10
2021,06,28,12,01,34.10
2021,06,28,12,02,34.10
2021,06,28,12,03,34.10
2021,06,28,12,04,34.10
2021,06,28,12,05,34.10
2021,06,28,12,06,34.10
2021,06,28,12,07,34.20
2021,06,28,12,08,34.20
2021,06,28,12,09,34.20
2021,06,28,12,10,34.20
2021,06,28,12,11,34.10
2021,06,28,12,12,34.20
2021,06,28,12,13,34.20
2021,06,28,12,14,34.30
2021,06,28,12,15,34.30
2021,06,28,12,16,34.30
2021,06,28,12,17,34.40
2021,06,28,12,18,34.60
2021,06,28,12,19,34.70
2021,06,28,12,20,34.70
2021,06,28,12,21,34.60
2021,06,28,12,22,34.60
2021,06,28,12,23,34.60
2021,06,28,12,24,34.60
2021,06,28,12,25,34.70
2021,06,28,12,26,34.80
2021,06,28,12,27,34.90
2021,06,28,12,28,35.00
2021,06,28,12,29,35.10
2021,06,28,12,30,35.10
2021,06,28,12,31,35.20
2021,06,28,12,32,35.30
2021,06,28,12,33,35.40
2021,06,28,12,34,35.50
2021,06,28,12,35,35.50
2021,06,28,12,36,35.50
2021,06,28,12,37,35.50
2021,06,28,12,38,35.50
2021,06,28,12,39,35.50
2021,06,28,12,40,35.60
2021,06,28,12,41,35.60
2021,06,28,12,42,35.70
2021,06,28,12,43,35.80
2021,06,28,12,44,35.80
2021,06,28,12,45,35.70
2021,06,28,12,46,35.60
2021,06,28,12,47,35.60
2021,06,28,12,48,35.50
2021,06,28,12,49,35.30
2021,06,28,12,50,35.30
2021,06,28,12,51,35.30
2021,06,28,12,52,35.30
2021,06,28,12,53,35.30
2021,06,28,12,54,35.30
2021,06,28,12,55,35.40
2021,06,28,12,56,35.60
2021,06,28,12,57,35.70
2021,06,28,12,58,35.80
2021,06,28,12,59,35.90
2021,06,28,13,00,35.90
2021,06,28,13,01,36.00
2021,06,28,13,02,36.00
2021,06,28,13,03,36.10
2021,06,28,13,04,36.10
2021,06,28,13,05,36.10
2021,06,28,13,06,36.20
2021,06,28,13,07,36.20
2021,06,28,13,08,36.20
2021,06,28,13,09,36.30
2021,06,28,13,10,36.30
2021,06,28,13,11,36.40
2021,06,28,13,12,36.50
2021,06,28,13,13,36.50
2021,06,28,13,14,36.50
2021,06,28,13,15,36.40
2021,06,28,13,16,36.30
2021,06,28,13,17,36.20
2021,06,28,13,18,36.00
2021,06,28,13,19,36.00
2021,06,28,13,20,36.00
2021,06,28,13,21,35.90
2021,06,28,13,22,35.70
2021,06,28,13,23,35.50
2021,06,28,13,24,35.50
2021,06,28,13,25,35.40
2021,06,28,13,26,35.40
2021,06,28,13,27,35.50
2021,06,28,13,28,35.60
2021,06,28,13,29,35.60
2021,06,28,13,30,35.60
2021,06,28,13,31,35.60
2021,06,28,13,32,35.70
2021,06,28,13,33,35.80
2021,06,28,13,34,35.80
2021,06,28,13,35,35.80
2021,06,28,13,36,35.80
2021,06,28,13,37,35.80
2021,06,28,13,38,35.80
2021,06,28,13,39,35.80
2021,06,28,13,40,35.90
2021,06,28,13,41,35.90
2021,06,28,13,42,35.90
2021,06,28,13,43,35.80
2021,06,28,13,44,35.90
2021,06,28,13,45,35.80
2021,06,28,13,46,35.80
2021,06,28,13,47,35.80
2021,06,28,13,48,35.90
2021,06,28,13,49,35.90
2021,06,28,13,50,36.00
2021,06,28,13,51,36.00
2021,06,28,13,52,36.00
2021,06,28,13,53,36.10
2021,06,28,13,54,36.20
2021,06,28,13,55,36.30
2021,06,28,13,56,36.40
2021,06,28,13,57,36.40
2021,06,28,13,58,36.40
2021,06,28,13,59,36.40
2021,06,28,14,00,36.40
2021,06,28,14,01,36.50
2021,06,28,14,02,36.60
2021,06,28,14,03,36.60
2021,06,28,14,04,36.50
2021,06,28,14,05,36.50
2021,06,28,14,06,36.50
2021,06,28,14,07,36.50
2021,06,28,14,08,36.60
2021,06,28,14,09,36.60
2021,06,28,14,10,36.70
2021,06,28,14,11,36.80
2021,06,28,14,12,36.80
2021,06,28,14,13,36.90
2021,06,28,14,14,36.90
2021,06,28,14,15,37.00
2021,06,28,14,16,37.00
2021,06,28,14,17,37.00
2021,06,28,14,18,37.00
2021,06,28,14,19,37.00
2021,06,28,14,20,37.00
2021,06,28,14,21,37.10
2021,06,28,14,22,37.10
2021,06,28,14,23,37.20
2021,06,28,14,24,37.30
2021,06,28,14,25,37.40
2021,06,28,14,26,37.60
2021,06,28,14,27,37.70
2021,06,28,14,28,37.70
2021,06,28,14,29,37.60
2021,06,28,14,30,37.60
2021,06,28,14,31,37.70
2021,06,28,14,32,37.70
2021,06,28,14,33,37.70
2021,06,28,14,34,37.70
2021,06,28,14,35,37.60
2021,06,28,14,36,37.60
2021,06,28,14,37,37.60
2021,06,28,14,38,37.60
2021,06,28,14,39,37.50
2021,06,28,14,40,37.50
2021,06,28,14,41,37.40
2021,06,28,14,42,37.30
2021,06,28,14,43,37.20
2021,06,28,14,44,37.20
2021,06,28,14,45,37.10
2021,06,28,14,46,37.10
2021,06,28,14,47,37.10
2021,06,28,14,48,37.10
2021,06,28,14,49,37.10
2021,06,28,14,50,37.10
2021,06,28,14,51,37.10
2021,06,28,14,52,37.10
2021,06,28,14,53,37.10
2021,06,28,14,54,37.10
2021,06,28,14,55,37.10
2021,06,28,14,56,37.10
2021,06,28,14,57,37.00
2021,06,28,14,58,37.00
2021,06,28,14,59,37.00
2021,06,28,15,00,36.90
2021,06,28,15,01,36.90
2021,06,28,15,02,36.90
2021,06,28,15,03,36.90
2021,06,28,15,04,36.90
2021,06,28,15,05,36.90
2021,06,28,15,06,36.90
2021,06,28,15,07,36.90
2021,06,28,15,08,36.90
2021,06,28,15,09,36.90
2021,06,28,15,10,36.90
2021,06,28,15,11,36.90
2021,06,28,15,12,36.80
2021,06,28,15,13,36.90
2021,06,28,15,14,37.00
2021,06,28,15,15,37.00
2021,06,28,15,16,37.10
2021,06,28,15,17,37.10
2021,06,28,15,18,37.20
2021,06,28,15,19,37.30
2021,06,28,15,20,37.40
2021,06,28,15,21,37.40
2021,06,28,15,22,37.40
2021,06,28,15,23,37.40
2021,06,28,15,24,37.40
2021,06,28,15,25,37.50
2021,06,28,15,26,37.60
2021,06,28,15,27,37.60
2021,06,28,15,28,37.70
2021,06,28,15,29,37.70
2021,06,28,15,30,37.70
2021,06,28,15,31,37.70
2021,06,28,15,32,37.80
2021,06,28,15,33,37.80
2021,06,28,15,34,37.80
2021,06,28,15,35,37.80
2021,06,28,15,36,37.80
2021,06,28,15,37,37.90
2021,06,28,15,38,38.00
2021,06,28,15,39,38.10
2021,06,28,15,40,38.30
2021,06,28,15,41,38.40
2021,06,28,15,42,38.50
2021,06,28,15,43,38.70
2021,06,28,15,44,38.80
2021,06,28,15,45,38.90
2021,06,28,15,46,39.00
2021,06,28,15,47,39.00
2021,06,28,15,48,38.90
2021,06,28,15,49,38.90
2021,06,28,15,50,38.80
2021,06,28,15,51,38.80
2021,06,28,15,52,38.70
2021,06,28,15,53,38.60
2021,06,28,15,54,38.60
2021,06,28,15,55,38.70
2021,06,28,15,56,38.70
2021,06,28,15,57,38.70
2021,06,28,15,58,38.80
2021,06,28,15,59,38.80
2021,06,28,16,00,38.80
2021,06,28,16,01,38.80
2021,06,28,16,02,38.90
2021,06,28,16,03,39.00
2021,06,28,16,04,39.10
2021,06,28,16,05,39.20
2021,06,28,16,06,39.20
2021,06,28,16,07,39.20
2021,06,28,16,08,39.30
2021,06,28,16,09,39.30
2021,06,28,16,10,39.30
2021,06,28,16,11,39.30
2021,06,28,16,12,39.20
2021,06,28,16,13,39.20
2021,06,28,16,14,39.20
2021,06,28,16,15,39.20
2021,06,28,16,16,39.20
2021,06,28,16,17,39.20
2021,06,28,16,18,39.20
2021,06,28,16,19,39.10
2021,06,28,16,20,39.10
2021,06,28,16,21,39.10
2021,06,28,16,22,39.20
2021,06,28,16,23,39.20
2021,06,28,16,24,39.20
2021,06,28,16,25,39.10
2021,06,28,16,26,39.00
2021,06,28,16,27,38.90
2021,06,28,16,28,38.90
2021,06,28,16,29,38.80
2021,06,28,16,30,38.80
2021,06,28,16,31,38.70
2021,06,28,16,32,38.70
2021,06,28,16,33,38.80
2021,06,28,16,34,38.80
2021,06,28,16,35,38.80
2021,06,28,16,36,38.70
2021,06,28,16,37,38.70
2021,06,28,16,38,38.70
2021,06,28,16,39,38.70
2021,06,28,16,40,38.70
2021,06,28,16,41,38.70
2021,06,28,16,42,38.70
2021,06,28,16,43,38.60
2021,06,28,16,44,38.60
2021,06,28,16,45,38.60
2021,06,28,16,46,38.50
2021,06,28,16,47,38.40
2021,06,28,16,48,38.40
2021,06,28,16,49,38.40
2021,06,28,16,50,38.30
2021,06,28,16,51,38.20
2021,06,28,16,52,38.20
2021,06,28,16,53,38.20
2021,06,28,16,54,38.30
2021,06,28,16,55,38.40
2021,06,28,16,56,38.40
2021,06,28,16,57,38.50
2021,06,28,16,58,38.60
2021,06,28,16,59,38.70
2021,06,28,17,00,38.70
2021,06,28,17,01,38.80
2021,06,28,17,02,38.80
2021,06,28,17,03,38.80
2021,06,28,17,04,38.90
2021,06,28,17,05,39.00
2021,06,28,17,06,39.10
2021,06,28,17,07,39.20
2021,06,28,17,08,39.30
2021,06,28,17,09,39.30
2021,06,28,17,10,39.30
2021,06,28,17,11,39.20
2021,06,28,17,12,39.10
2021,06,28,17,13,39.10
2021,06,28,17,14,39.00
2021,06,28,17,15,39.00
2021,06,28,17,16,38.90
2021,06,28,17,17,38.80
2021,06,28,17,18,38.80
2021,06,28,17,19,38.80